Milan, Italy

9:20 AM CEST on April 27, 2017 (GMT +0200)
Malpensa

Weather History for LIMC - October, 2012

Change the Weather History Date:

Thursday, October 11, 2012

  Actual Average Record
Temperature  
Mean Temperature 55 °F -  
Max Temperature 62 °F 60 °F 86 °F (2011)
Min Temperature 48 °F 40 °F 39 °F (2010)
Degree Days  
Heating Degree Days 10    
Growing Degree Days 5 (Base 50)    
Moisture  
Dew Point 55 °F    
Average Humidity 93    
Maximum Humidity 100    
Minimum Humidity 82    
Precipitation  
Precipitation 0.00 in 0.14 in - ()
Sea Level Pressure  
Sea Level Pressure 29.88 in    
Wind  
Wind Speed 1 mph ()    
Max Wind Speed 4 mph    
Max Gust Speed -    
Visibility 2.2 miles    
Events Fog    
Averages and records for this station are not official NWS values.
T = Trace of Precipitation, MM = Missing Value Source: Averaged Metar Reports

Daily Weather History Graph

Daily Weather History Graph

Search for Another Location

Airport or City:

Trip Planner

Search our weather history database for the weather conditions in past years. The results will help you decide how hot, cold, wet, or windy it might be!

Date:

Astronomy

Oct. 11, 2012 Rise Set
Actual Time 7:36 AM CEST 6:46 PM CEST
Civil Twilight 7:06 AM CEST 7:15 PM CEST
Nautical Twilight 6:32 AM CEST 7:50 PM CEST
Astronomical Twilight 5:57 AM CEST 8:24 PM CEST
Moon 2:45 AM CEST (10/11) 4:24 PM CEST (10/11)
Length of Visible Light 12h 09m
Length of Day
11h 09m
Waning Crescent, 20% of the Moon is Illuminated
Oct 11
Waning Crescent
Oct 15
New
Oct 22
First Quarter
Oct 29
Full
Nov 7
Last Quarter

Hourly Weather History & Observations

Time (CEST) Temp. Dew Point Humidity Pressure Visibility Wind Dir Wind Speed Gust Speed Precip Events Conditions
12:20 AM 51.8 °F 51.8 °F 100% 29.89 in 3.7 mi North 1.2 mph - N/A   Unknown
12:50 AM 51.8 °F 51.8 °F 100% 29.89 in 3.1 mi NNE 1.2 mph - N/A Fog Patches of Fog
1:20 AM 50.0 °F 50.0 °F 100% 29.89 in 2.8 mi Calm Calm - N/A Fog Patches of Fog
1:50 AM 50.0 °F 50.0 °F 100% 29.89 in 2.8 mi NNE 1.2 mph - N/A Fog Patches of Fog
2:20 AM 48.2 °F 48.2 °F 100% 29.86 in 1.9 mi North 1.2 mph - N/A Fog Patches of Fog
2:50 AM 50.0 °F 48.2 °F 94% 29.86 in 1.9 mi North 1.2 mph - N/A Fog Patches of Fog
3:20 AM 50.0 °F 48.2 °F 94% 29.86 in 1.6 mi Calm Calm - N/A Fog Patches of Fog
3:50 AM 48.2 °F 48.2 °F 100% 29.86 in 1.6 mi North 2.3 mph - N/A Fog Patches of Fog
4:20 AM 48.2 °F 48.2 °F 100% 29.86 in 1.6 mi North 1.2 mph - N/A Fog Patches of Fog
4:50 AM 48.2 °F 48.2 °F 100% 29.86 in 1.6 mi NNE 1.2 mph - N/A Fog Patches of Fog
5:20 AM 48.2 °F 46.4 °F 93% 29.86 in 2.5 mi North 1.2 mph - N/A   Mist
5:50 AM 50.0 °F 50.0 °F 100% 29.86 in 2.5 mi North 2.3 mph - N/A   Mist
6:20 AM 51.8 °F 51.8 °F 100% 29.86 in 3.1 mi North 1.2 mph - N/A   Mist
6:50 AM 51.8 °F 51.8 °F 100% 29.86 in 3.1 mi NNW 2.3 mph - N/A   Scattered Clouds
7:20 AM 55.4 °F 53.6 °F 94% 29.86 in 3.1 mi North 2.3 mph - N/A   Scattered Clouds
7:50 AM 55.4 °F 53.6 °F 94% 29.89 in 2.8 mi North 2.3 mph - N/A   Mostly Cloudy
8:20 AM 55.4 °F 55.4 °F 100% 29.89 in 2.5 mi Variable 2.3 mph - N/A   Mostly Cloudy
8:50 AM 55.4 °F 55.4 °F 100% 29.89 in 2.5 mi Variable 2.3 mph - N/A   Mostly Cloudy
9:20 AM 57.2 °F 55.4 °F 94% 29.89 in 2.5 mi North 2.3 mph - N/A   Mostly Cloudy
9:50 AM 57.2 °F 55.4 °F 94% 29.89 in 2.8 mi North 2.3 mph - N/A   Mostly Cloudy
10:20 AM 57.2 °F 57.2 °F 100% 29.92 in 2.8 mi North 3.5 mph - N/A   Mostly Cloudy
10:50 AM 59.0 °F 57.2 °F 94% 29.92 in 2.8 mi Variable 2.3 mph - N/A   Mostly Cloudy
11:20 AM 59.0 °F 57.2 °F 94% 29.92 in 2.5 mi Variable 2.3 mph - N/A   Mostly Cloudy
11:50 AM 60.8 °F 59.0 °F 94% 29.92 in 1.9 mi Variable 2.3 mph - N/A   Mostly Cloudy
12:20 PM 60.8 °F 59.0 °F 94% 29.92 in 1.6 mi NE 3.5 mph - N/A   Mostly Cloudy
12:50 PM 60.8 °F 59.0 °F 94% 29.89 in 1.9 mi ENE 3.5 mph - N/A   Mostly Cloudy
1:20 PM 62.6 °F 57.2 °F 82% 29.89 in 2.5 mi Variable 2.3 mph - N/A   Mostly Cloudy
1:50 PM 62.6 °F 57.2 °F 82% 29.89 in 2.5 mi Variable 2.3 mph - N/A   Mostly Cloudy
2:20 PM 62.6 °F 57.2 °F 82% 29.89 in 2.2 mi Variable 2.3 mph - N/A   Mostly Cloudy
2:50 PM 62.6 °F 57.2 °F 82% 29.89 in 2.2 mi Variable 2.3 mph - N/A   Mostly Cloudy
3:20 PM 60.8 °F 57.2 °F 88% 29.86 in 1.6 mi Variable 2.3 mph - N/A   Light Drizzle
3:50 PM 62.6 °F 57.2 °F 82% 29.86 in 1.9 mi Variable 2.3 mph - N/A   Mostly Cloudy
4:20 PM 62.6 °F 57.2 °F 82% 29.86 in 1.9 mi Variable 2.3 mph - N/A   Mostly Cloudy
4:50 PM 62.6 °F 57.2 °F 82% 29.86 in 1.9 mi Variable 1.2 mph - N/A   Mostly Cloudy
5:20 PM 62.6 °F 57.2 °F 82% 29.86 in 1.9 mi ESE 2.3 mph - N/A   Mostly Cloudy
5:50 PM 62.6 °F 57.2 °F 82% 29.86 in 1.9 mi Calm Calm - N/A   Mostly Cloudy
6:20 PM 62.6 °F 57.2 °F 82% 29.86 in 1.9 mi Variable 1.2 mph - N/A   Mostly Cloudy
6:50 PM 60.8 °F 59.0 °F 94% 29.86 in 1.9 mi Calm Calm - N/A   Mostly Cloudy
7:20 PM 60.8 °F 57.2 °F 88% 29.86 in 1.9 mi East 1.2 mph - N/A   Mostly Cloudy
7:50 PM 60.8 °F 57.2 °F 88% 29.86 in 1.9 mi Variable 1.2 mph - N/A   Mostly Cloudy
8:20 PM 60.8 °F 57.2 °F 88% 29.86 in 1.9 mi Calm Calm - N/A   Mostly Cloudy
8:50 PM 57.2 °F 57.2 °F 100% 29.86 in 1.9 mi Calm Calm - N/A   Mostly Cloudy
9:20 PM 59.0 °F 57.2 °F 94% 29.89 in 1.9 mi Calm Calm - N/A   Mostly Cloudy
9:50 PM 57.2 °F 57.2 °F 100% 29.89 in 1.9 mi Variable 1.2 mph - N/A   Mostly Cloudy
10:20 PM 59.0 °F 59.0 °F 100% 29.89 in 1.9 mi Variable 2.3 mph - N/A   Mostly Cloudy
10:50 PM 59.0 °F 57.2 °F 94% 29.89 in 1.9 mi Variable 2.3 mph - N/A   Mostly Cloudy
11:20 PM 59.0 °F 57.2 °F 94% 29.89 in 1.6 mi Variable 1.2 mph - N/A   Mostly Cloudy
11:50 PM 59.0 °F 57.2 °F 94% 29.86 in 1.6 mi Calm Calm - N/A   Mostly Cloudy